Regional Weather Roundup
Issued by NWS Upton, NY

Current Version | Previous Version | Graphics & Text | Print | Product List | Glossary Off
Versions: 1 2 3 4 5 6 7 8 9 10 11 12 13 14 15 16 17 18 19 20 21 22 23 24 25 26 27 28 29 30 31 32 33 34 35 36 37 38 39 40 41 42 43 44 45 46 47 48 49 50

000
ASUS41 KOKX 251605
RWROKX

REGIONAL WEATHER ROUNDUP
NATIONAL WEATHER SERVICE NEW YORK NY
1100 AM EST SUN JAN 25 2015

NOTE: "FAIR" INDICATES FEW OR NO CLOUDS BELOW 12,000 FEET WITH NO
SIGNIFICANT WEATHER AND/OR OBSTRUCTIONS TO VISIBILITY.

NYZ071-072-176-178-NJZ106-104-251700-
NEW YORK CITY METRO AREA


CITY           SKY/WX    TMP DP  RH WIND       PRES   REMARKS
CENTRAL PARK   MOSUNNY   41  25  53 NW7G18    29.76R
LAGUARDIA APRT PTSUNNY   41  27  57 NW14      29.74S
KENNEDY INTL   PTSUNNY   41  27  57 W15G24    29.75F
NEWARK/LIBERTY PTSUNNY   40  26  57 W15G29    29.74S WCI  32
BRNX BOT. GARD   N/A    N/A N/A N/A W20       29.74F
TETERBORO      SUNNY     40  18  41 NW9G20    29.74R WCI  34
$$

NYZ177-179-078>081-251700-
LONG ISLAND NEW YORK

CITY           SKY/WX    TMP DP  RH WIND       PRES   REMARKS
FARMINGDALE    MOSUNNY   41  26  55 W15       29.73S
ISLIP          PTSUNNY   40  24  53 W18G28    29.71R WCI  31
SHIRLEY        MOSUNNY   40  24  53 W15G31    29.73R WCI  32
WESTHAMPTON    MOSUNNY   42  27  55 W16G24    29.72R
MONTAUK POINT    N/A     41  28  60 W16G25    29.70R
$$

NYZ052-065-067-251700-
HUDSON VALLEY

CITY           SKY/WX    TMP DP  RH WIND       PRES   REMARKS
WHITE PLAINS   MOSUNNY   37  22  54 NW13      29.70R WCI  29
NEWBURGH       MOSUNNY   34  18  51 NW17G29   29.75R WCI  23
MONTGOMERY     SUNNY     35  14  42 NW14G25   29.73R WCI  26
POUGHKEEPSIE   SUNNY     37  16  42 W12G25    29.73R WCI  29
ALBANY         MOSUNNY   28   9  44 NW16G25   29.77R WCI  16
$$

NJZ001-105-106-008-010-013-015-019>022-104-251700-
NEW JERSEY

CITY           SKY/WX    TMP DP  RH WIND       PRES   REMARKS
NEWARK/LIBERTY PTSUNNY   40  26  57 W15G29    29.74S WCI  32
TETERBORO      SUNNY     40  18  41 NW9G20    29.74R WCI  34
CALDWELL       SUNNY     39  17  41 NW14G24   29.74R WCI  31
MORRISTOWN     MOSUNNY   41  16  36 NW16G23   29.75R
SOMERVILLE     MOSUNNY   42  24  49 NW12G22   29.74R
SUSSEX         SUNNY     37  15  40 W10G17    29.74R WCI  30
ANDOVER          N/A     37  13  37 MISG      29.75R
TRENTON        PTSUNNY   42  27  55 W14G20    29.77R
MILLVILLE      PTSUNNY   45  32  60 W15G24    29.83R
ATLANTIC CITY  MOSUNNY   44  31  60 W15G24    29.81R
WRIGHTSTOWN    MOSUNNY   42  30  61 W16G22    29.77R
TOMS RIVER     SUNNY     43  28  56 W20G26    29.79R
BELMAR         SUNNY     43  27  52 W18G26    29.75F
$$

PAZ047>061-062-071-251700-
EASTERN PENNSYLVANIA

CITY           SKY/WX    TMP DP  RH WIND       PRES   REMARKS
PHILADELPHIA   CLOUDY    42  30  62 SW14      29.83R
ALLENTOWN      CLOUDY    40  27  59 W8        29.77R WCI  34
SCRANTON       SUNNY     33  15  47 N16G25    29.76R WCI  23
$$

CTZ002-004>006-009-010-012-RIZ004-006-007-MAZ004-011-015-251700-
SOUTHERN NEW ENGLAND
 IN CT

CITY           SKY/WX    TMP DP  RH WIND       PRES   REMARKS
BRADLEY INTL   MOSUNNY   35  19  52 NW21G28   29.69R WCI  24
HARTFORD       MOSUNNY   37  18  46 NW9G23    29.70R WCI  30
DANBURY        MOSUNNY   38  16  40 W14       29.71R WCI  30
WTRBRY/OXFORD  NOT AVBL
BRIDGEPORT     MOSUNNY   39  20  46 NW20G28   29.71R WCI  29
MERIDEN        PTSUNNY   38  23  55 NW9G20    29.70R WCI  31
NEW HAVEN      PTSUNNY   39  25  57 W13G22    29.70R WCI  31
CHESTER        PTSUNNY   37  28  70 W5G18     29.68R WCI  34
GROTON         PTSUNNY   39  27  62 W16G26    29.67R WCI  30
WILLIMANTIC    CLOUDY    36  24  62 NW7G17    29.68R WCI  30

 IN RI

CITY           SKY/WX    TMP DP  RH WIND       PRES   REMARKS
PROVIDENCE     PTSUNNY   37  25  61 W13G26    29.64R WCI  29
BLOCK ISLAND   SUNNY     41  28  60 W22G29    29.67R
WESTERLY       PTSUNNY   39  27  62 W9G24     29.68R WCI  33

 IN MA

CITY           SKY/WX    TMP DP  RH WIND       PRES   REMARKS
BOSTON         MOSUNNY   38  24  57 W17G28    29.59R WCI  28
WORCESTER      PTSUNNY   31  17  56 W15G24    29.60R WCI  20
WESTFIELD      MOSUNNY   33  15  47 NW9G32    29.69R WCI  25
PROVINCETOWN   NOT AVBL
NANTUCKET      SUNNY     42  31  64 W23G33    29.62S
$$

ANZ330-335-338-340-345-350-353-355-251700-
COASTAL MARINE OBSERVATIONS


STATION/POSITION TIME  SKY/WX   TEMP    WIND        PRES    VSBY  WAVE
                                AIR SEA DIR/SP/G                  HT/PER
                 (UTC)          (F)     (DEG/KT/KT) (MB)    (MI)  (FT/S)
NY HARB ENTRANCE 1600            41 42  280/ 19/ 23 1006.7          4/11
4S FIRE IS       1600               39                N/A           7/13
20S FIRE ISLAND  1500               42              1007.3          7/ 6
23SW MTP         1600                                 N/A          10/ 7
HUDSON CANYON    NOT AVBL
EXECUTION ROCKS  1600            42 35  300/ 12/ 19   N/A
WESTERN LI SOUND 1600            40     290/ 16/ 19   N/A           2/ 3
CENTRAL LI SOUND 1500            38 37  250/ 21/ 27   N/A           4/ 5
EASTERN LI SOUND NOT AVBL
ROBBINS REEF     1600            39     290/ 15/ 18 1006.1
$$


>>>>>>>>>>>>>>>>>>>>>>>>>>>> KEY <<<<<<<<<<<<<<<<<<<<<<<<<<<
>                                                          <
>     SKY/WX - SKY CONDITION/PRESENT WEATHER               <
>     TMP    - TEMPERATURE IN FAHRENHEIT                   <
>     DP     - DEWPOINT IN FAHRENHEIT                      <
>     RH     - RELATIVE HUMIDITY IN PERCENT                <
>     WIND   - DIRECTION AND SPEED IN MPH                  <
>     PRES   - MEAN SEA LEVEL PRESSURE IN INCHES OF HG     <
>     WCI    - WIND CHILL INDEX                            <
>     VSB    - VISIBILITY IN MILES                         <
>     HX     - HEAT INDEX                                  <
>     TC     - TEMPERATURE IN CELSIUS                      <
>     VRB    - VARIABLE WIND DIRECTION                     <
>                                                          <
>>>>>>>>>>>>>>>>>>>>>>>>>>>> KEY <<<<<<<<<<<<<<<<<<<<<<<<<<<





USA.gov is the U.S. government's official web portal to all federal, state and local government web resources and services.